NOAA 16 DEB

Satellite information

Favourite Embed

Satellite Type and Status

DEBRISIN ORBIT

Key statistics

Satellite NOAA 16 DEB at a glance.

Uptime

9055

Days in orbit

Revolutions

≈ 14.8

Per day

Orbit

SSO

Sun Synchronous Orbit

Inclination

99.0

Latest

Satellite identification and parameters

Extended collection of information and parameters for NOAA 16 DEB.

Object identification

Identified? True

Debris? True

Object name: NOAA 16 DEB

International designator: 2000-055SK

Object number (NORAD): 42391

Object ID (CCSDS): 42391

Country: UNITED STATES OF AMERICA (US)

Current information (Y/N): Y

RCS size: SMALL

Orbital parameters

Period: 97.529 minutes

Inclination: 99.0222 deg

SMA: 7018.583 km

Apoapsis: 651.014 km

Periapsis: 629.882 km

RAAN: 60.0455 deg

Eccentricy: 0.0015054

Argument of periapsis: 34.4525 deg

Mean anomaly: 325.7654 deg

Mean motion: 14.76483434 rev/day

Mean motion (dot): 0.00020653 rev/day2

B* drag term: 0.002961 1/REarth

Two-line elements (TLE)

Creation date: July 6, 2025, 10:26 p.m.

Reference frame: TEME

Reference center: EARTH

Epoch: July 6, 2025, 8:44 p.m. UTC

TLE line 0: 0 NOAA 16 DEB

TLE line 1: 1 42391U 00055SK 25187.86437362 .00020653 00000-0 29610-2 0 9997

TLE line 2: 2 42391 99.0222 60.0455 0015054 34.4525 325.7654 14.76483434488122

Live tracking on map

Real-time ground track for satellite NOAA 16 DEB.

In-orbit conjunctions

A list of the most updated potential collisions computed for object NOAA 16 DEB.

Target Orbit TCA Probability of collision Miss distance Type
CZ-6A DEB LEO 2025-01-05 18:03:26 0.0002242433 193.0 (m) DEBRIS
CZ-6A DEB LEO 2024-11-14 04:22:13 0.0001584596 906.0 (m) DEBRIS
CZ-6A DEB LEO 2024-11-12 10:16:14 0.0001647731 630.0 (m) DEBRIS

Associated space launch

The NOAA K, L and M POES satellites begin the fifth generation of improved environmental monitoring in support of NOAA missions. The instrument payload has significant improvements and additions/deletions. The instrument changes have effected the spacecraft subsystems and data formats.

NOAA 16 DEB was lifted into orbit during the mission ‘Titan II SLV | NOAA 16’, on board a Titan II SLV space rocket.

The launch took place on Sept. 21, 2000, 10:22 a.m. from Space Launch Complex 4W.

For more information about the launch, click the button.

Launch to space Titan II SLV | NOAA 16
Titan II SLV | NOAA 16

Agency: N/A

Status: Launch Successful

Launch date: Sept. 21, 2000, 10:22 a.m. UTC

Rocket: Titan II SLV

Launch pad: Space Launch Complex 4W

Location: Vandenberg SFB, CA, USA

...

Latest news about this satellite

There are no fresh news available about this satellite. Check back as we update our databases every day.


Newsletter sign-up

Weekly statistics, charts and insights to help you stay on top of the space industry.